Location: Edmonton
(53.5500°N, 113.5000°W)
Time: 18:46:39
(UTC-06:00)

Daily predictions for brighter satellites

Satellite Brightness Start Highest point End
(mag) Time Altitude Azimuth Time Altitude Azimuth Time Altitude Azimuth
USA 238 DEB 4.2 22:46:15 10° NW 22:53:18 62° NNE 23:00:16 10° ESE
USA 238 4.2 22:46:22 10° NW 22:53:23 62° NNE 23:00:21 10° ESE
Cosmos 1937 Rocket 3.7 22:48:41 10° S 22:53:44 51° ESE 22:58:45 10° NE
Cosmos 2219 Rocket 2.8 22:48:28 10° NW 22:53:54 53° WSW 22:59:20 10° S
COSMOS 2428 4.2 22:49:17 10° NW 22:54:11 31° WSW 22:59:06 10° SSW
COSMOS 2455 3.0 22:48:17 10° NW 22:54:22 81° NE 23:00:25 10° SE
Cosmos 192 4.4 22:50:15 10° NNW 22:55:13 86° ENE 23:00:08 10° SSE
Cosmos 2297 Rocket 3.2 22:51:45 10° SSE 22:56:25 27° ESE 23:01:06 10° NE
NOSS 3-1 (C) 3.5 22:50:34 10° SSW 22:56:32 68° SE 23:03:18 10° NE
Cosmos 1862 Rocket 3.6 22:55:23 10° N 22:59:45 73° ENE 23:04:05 10° SSE
Meteor 1-4 Rocket 3.5 22:56:51 10° NNW 23:00:30 46° W 23:04:03 10° S
Cosmos 990 Rocket 4.4 22:56:18 10° S 23:01:08 44° ESE 23:06:02 10° NE
Sich 1 3.2 22:57:49 10° SSW 23:02:14 83° W 23:06:38 10° N
BREEZE-M DEB (TANK) 4.3 22:42:09 10° W 23:02:52 68° S 23:07:38 10° ESE
Cosmos 2242 Rocket 4.3 22:58:55 10° NNW 23:03:18 55° W 23:07:42 10° S
Cosmos 2298 Rocket 4.1 23:00:25 10° SSW 23:05:45 89° WNW 23:11:08 10° NNE
CZ-4B R/B 3.6 23:00:52 10° NNE 23:06:12 86° ESE 23:11:25 10° SSW
CARTOSAT-1 3.6 23:02:47 10° SSE 23:07:05 74° ENE 23:11:25 10° NNW
Cosmos 1633 Rocket 3.3 23:04:28 10° SSW 23:08:50 76° WNW 23:13:13 10° N
CENTAUR R/B 4.3 23:02:55 10° WNW 23:09:26 39° N 23:16:39 10° ENE
Cosmos 1869 3.4 23:12:05 10° N 23:16:10 88° E 23:20:13 10° S
Cosmos 1980 4.4 23:11:15 10° NW 23:16:41 50° WSW 23:22:06 10° S
Cosmos 2181 Rocket 4.4 23:11:57 10° N 23:18:14 58° ENE 23:24:35 10° SSE
Cosmos 1269 Rocket 4.1 23:16:16 10° NNW 23:21:38 90° SW 23:26:55 10° SSE
Cosmos 374 Rocket 4.4 23:18:06 10° NW 23:21:52 75° NE 23:26:10 10° SE
Cosmos 1271 Rocket 4.3 23:18:53 10° NNW 23:22:18 31° W 23:25:45 10° SSW
CZ-4C R/B 3.3 23:17:15 10° NW 23:23:45 57° NNE 23:31:05 10° ESE
IGS 5A 3.5 23:20:21 10° SSE 23:24:31 89° WSW 23:28:44 10° NNW
Cosmos 2237 Rocket 3.0 23:23:13 10° NW 23:28:37 45° WSW 23:34:00 10° S
SeaSat 1 3.3 23:24:02 10° ESE 23:28:43 45° NE 23:33:26 10° NNW
USA 234 3.7 23:23:06 10° ENE 23:29:36 68° N 23:36:05 10° W
Cosmos 2219 4.2 23:25:20 10° SW 23:30:57 53° NW 23:36:35 10° NNE
Cosmos 1346 3.0 23:27:57 10° SSW 23:30:59 88° E 23:34:02 10° NNE
H-2A R/B 2.4 23:27:37 10° S 23:32:59 68° WSW 23:38:28 10° NNW
CZ-4C R/B 4.1 23:31:10 10° S 23:34:25 38° W 23:37:45 10° NNW
Iridium 2 4.3 23:31:07 10° SSW 23:34:55 57° W 23:38:45 10° N
Cosmos 1626 2.1 23:31:53 10° S 23:35:38 85° E 23:39:25 10° NNE
Cosmos 220 Rocket 4.2 23:31:20 10° SSW 23:35:46 78° WNW 23:40:15 10° NNE
Cosmos 389 Rocket 3.1 23:34:24 10° N 23:37:52 44° ENE 23:40:50 13° SE
Cosmos 1048 Rocket 4.1 23:34:40 10° NNW 23:40:03 81° WSW 23:45:02 12° SSE
Cosmos 1898 Rocket 4.1 23:35:05 10° SW 23:40:13 59° WNW 23:45:25 10° NNE
CZ-4B R/B 3.8 23:38:30 10° E 23:40:27 15° ENE 23:42:24 10° NNE
Cosmos 1703 4.2 23:36:48 10° SSW 23:40:36 49° WNW 23:44:26 10° N
Cosmos 2082 3.7 23:35:07 10° SSW 23:40:47 68° ESE 23:46:30 10° NE
Okean 1-7 3.3 23:41:17 10° N 23:45:31 57° ENE 23:49:08 14° SSE
Cosmos 1125 Rocket 3.9 23:41:07 10° S 23:46:10 47° ESE 23:51:16 10° NE
NOSS 3-2 (A) 4.3 23:41:21 10° NW 23:48:25 64° NNE 23:56:10 10° ESE
Cosmos 158 Rocket 4.2 23:43:12 10° NNW 23:48:34 72° ENE 23:53:13 13° SE
BREEZE-M DEB (TANK) 4.0 23:53:59 11° ESE 23:53:59 11° ESE 23:54:15 10° ESE
Terra 2.5 23:49:06 10° S 23:53:42 48° W 23:58:20 10° NNW
ALOS 2 3.9 23:51:05 10° SE 23:54:56 31° ENE 23:58:49 10° N
Tiangong 1 3.3 23:55:52 10° SSW 23:56:26 11° SSW 23:56:26 11° SSW
